Location: Chandolas
(44.4033°N, 4.2533°E)
Time: 07:20:34
(UTC+00:00)

CZ-2C R/B - Pass Details

Date: 15 November 2019
Orbit: 667 x 785 km, 98.1° (Epoch: 13 December)

Event Time Altitude Azimuth Distance (km) Brightness Sun altitude
Rises 04:42:28 0° 7° (N) 3,191 5.7 -20.7°
Reaches altitude 10° 04:44:52 10° 2° (N) 2,245 4.9 -20.3°
Maximum altitude 04:49:34 47° 290° (WNW) 949 2.5 -19.4°
Enters shadow 04:52:01 25° 230° (SW) 1,414 3.5 -19.0°
